OPS 4682 DEB, 38414

Orbit data source: Space-Track

OPS 4682 DEB, 38414 is space debris in LEO originally from a launch on Sat, 03 Apr 1965 UTC launched from the Air Force Western Test Range (AFWTR). Debris objects in space refer to the collection of defunct objects orbiting the Earth. Examples of debris include non-operational satellites, rocket bodies, and fragments generated from explosions, collisions, or faulty payload assembly.

Loading next visibility...
Identifier
38414, 1965-027DT
Orbit
LEO
Country
Flag of USUS
Related business
Manufacturer
Unknown
Mission
Spacecraft
Bus & Motor
Unknown
Mass
Unknown
Launch date (UTC)
1965-04-03 (61 years ago)
Launch vehicle
Unknown
Launch site
Air Force Western Test Range (AFWTR)
Object type
Payload
Rocket body
Debris
Shape & HBR
Unknown shape, 0.1 m
Radar Cross Section
Small (<0.1 m²)

Expand to show TLE details & history
Last TLE update: 3 days ago

TLE from 3 days ago
0 OPS 4682 DEB
1 38414U 65027DT  26104.43625524  .00000683  00000-0  23021-2 0  9991
2 38414  90.2345 351.0326 0038439 280.7157  78.9637 12.98056596132537
Epoch: 2026-04-14T10:28Z
TLE epoch observation values (Epoch: 2026-04-14T10:28:12.452Z)
Latitude
-0.00005°
Longitude
-8.63181°
Altitude
1,267.072 km
Speed
7.225 km/s
True Right ascension
23h 24m 07s
True Declination
0° 00' 00"
Sunlit
Object was in daylight at epoch
Visualization orbit readout
Latitude
Unknown
Longitude
Unknown
Altitude
Unknown
Speed
Unknown
Apparent Right ascension
Unknown
Apparent Declination
Unknown
Sunlit
N/A
Visualization observer readout
Local Sidereal Time
01:40:31
Azimuth
Unknown
Elevation
Unknown
Doppler factor
Unknown
Orbital elements
Apogee altitude
1,296.227 km
Perigee altitude
1,237.454 km
Semi-major axis
7,644.977 km
Eccentricity
0.00384
Inclination
90.2345°
RAAN
351.0326°
Arg. of periapsis
280.7157°
True anomaly
79.39643°
Mean anomaly
78.9637°
Eccentric anomaly
79.18002°
Mean motion
3.24697 °/min
Orbital period
110.87 mins
BSTAR
0.0023021
Loading maneuver chart data...
Computing Atmospheric mass density...
Loading historical data...
Loading historical data...
Loading historical data...
Loading historical data...
Loading historical data...
Loading historical data...
Loading historical data...

Documentation

Showing up to 5 results
|